[[{"header":{"parameterUnit":"m.s-1","parameterCategory":1,"la1":30.2991,"la2":30.254,"lo1":-89.0895,"lo2":-89.0444,"dx":0.0017,"dy":0.0017,"nx":28,"ny":28,"refTime":"2022-12-24T09:00:00:Z","depth":0,"parameterNumber":2,"parameterNumberName":"U-component_of_WINDS"},"data":[0,0,0,0,0,0,0,0,0,0,0,0,0,0,0,0,0,0,0,0,0,0,0,0,0,0,0,0,0,0,0,0,0,0,0,0,0,0,0,0,0,0,0,0,0,0,0,0,0,0,0,0,0,0,0,0,0,0,-0.5603,-0.5603,0,-0.562,-0.562,-0.562,-0.559,-0.5589,-0.5588,-0.5587,-0.5606,-0.5608,-0.5609,0,0,0,0,0,0,0,0,0,0,0,0,0,-0.5544,-0.5546,-0.5603,-0.5603,-0.5603,-0.562,-0.562,-0.562,-0.559,-0.5589,-0.5588,-0.5587,-0.5606,-0.5608,-0.5609,0,0,0,0,0,0,0,0,0,0,0,0,0,-0.5566,-0.5546,-0.5603,-0.559,-0.5589,-0.562,-0.562,-0.562,-0.5591,-0.5589,-0.5588,-0.5586,-0.5605,-0.5608,-0.561,-0.5654,0,0,-0.5616,-0.5617,0,0,0,0,0,0,0,0,-0.5565,-0.5569,-0.5592,-0.5591,-0.559,-0.5601,-0.5606,-0.5632,-0.5591,-0.559,-0.5587,-0.5585,-0.5606,-0.5608,-0.5615,-0.5655,-0.5655,-0.5617,-0.5618,-0.5619,-0.5619,0,0,0,0,0,0,0,-0.5564,-0.5568,-0.561,-0.5592,-0.5591,-0.5584,-0.5585,-0.5611,-0.5607,-0.559,-0.5588,-0.559,-0.5605,-0.5613,-0.5615,-0.5656,-0.5616,-0.5618,-0.562,-0.5621,-0.5729,-0.573,0,0,0,0,0,0,-0.5564,-0.5567,-0.5609,-0.561,-0.5574,-0.5586,-0.5588,-0.5599,-0.5606,-0.5606,-0.5592,-0.5589,-0.561,-0.5612,-0.5616,-0.5665,-0.5619,-0.5621,-0.5622,-0.5727,-0.5729,-0.5731,0,0,0,0,0,0,-0.5563,-0.5568,-0.5608,-0.5588,-0.5592,-0.5589,-0.5602,-0.56,-0.5608,-0.5607,-0.5606,-0.56,-0.5609,-0.5612,-0.5643,-0.5665,-0.5622,-0.5624,-0.5726,-0.5728,-0.573,-0.5766,0,0,0,0,0,0,-0.5561,-0.5568,-0.5584,-0.5588,-0.5594,-0.5636,-0.5603,-0.5602,-0.5611,-0.5608,-0.5615,-0.5615,-0.5608,-0.564,-0.5646,-0.5668,-0.5626,-0.5724,-0.5727,-0.5729,-0.5763,-0.577,-0.5775,0,0,0,0,0,-0.5559,-0.5595,-0.5586,-0.5591,-0.5615,-0.5638,-0.5641,-0.5632,-0.5613,-0.563,-0.5629,-0.5614,-0.5662,-0.5644,-0.565,-0.5673,-0.5722,-0.5726,-0.5729,-0.576,-0.5768,-0.5775,0,0,0,0,0,0,-0.5596,-0.5596,-0.5585,-0.5623,-0.563,-0.5633,-0.5654,-0.5641,-0.5654,-0.565,-0.5639,-0.5641,-0.5674,-0.5676,-0.5656,-0.5714,-0.5689,-0.5694,-0.5711,-0.5718,-0.5724,-0.5723,-0.5627,0,0,0,0,0,-0.5608,-0.5626,-0.5625,-0.5659,-0.5663,-0.5658,-0.5668,-0.566,-0.5667,-0.567,-0.5672,-0.568,-0.5696,-0.5708,-0.5723,-0.5763,-0.5763,-0.5782,-0.5788,-0.5793,-0.5797,-0.5816,-0.5823,-0.5743,-0.5743,-0.5742,0,0,-0.5634,-0.5636,-0.5649,-0.5667,-0.5671,-0.569,-0.5661,-0.5683,-0.5696,-0.5674,-0.5702,-0.5704,-0.5712,-0.5747,-0.5762,-0.575,-0.5819,-0.5797,-0.5801,-0.5803,-0.582,-0.5828,-0.5834,-0.5745,-0.5745,-0.5744,0,0,-0.5691,-0.5695,-0.5722,-0.5727,-0.5733,-0.5729,-0.5735,-0.5739,-0.5738,-0.5767,-0.5749,-0.5765,-0.5795,-0.58,-0.5807,-0.5862,-0.5848,-0.5868,-0.5899,-0.5917,-0.5924,-0.5929,-0.5947,-0.5954,-0.5872,-0.5872,-0.5872,0,-0.5723,-0.575,-0.5738,-0.576,-0.5768,-0.5746,-0.5773,-0.5779,-0.5791,-0.5796,-0.5782,-0.5816,-0.582,-0.5855,-0.5868,-0.5875,-0.5881,-0.5867,-0.5924,-0.5929,-0.5934,-0.5951,-0.5958,-0.5874,-0.5874,-0.5874,-0.5874,0,-0.5787,-0.5807,-0.5828,-0.5838,-0.5848,-0.5873,-0.5864,-0.5875,-0.5866,-0.5863,-0.589,-0.5894,-0.5908,-0.5916,-0.5908,-0.5949,-0.5941,-0.5926,-0.59,-0.5944,-0.596,-0.5966,-0.5877,-0.5877,-0.5876,-0.5875,0,0,-0.5869,-0.587,-0.5878,-0.5881,-0.5885,-0.59,-0.5923,-0.5936,-0.5945,-0.5953,-0.5971,-0.5995,-0.5979,-0.5987,-0.5979,-0.5995,-0.6036,-0.5978,-0.5977,-0.5987,-0.6079,-0.609,-0.6097,-0.6027,-0.6028,-0.6029,-0.6078,0,-0.5924,-0.5962,-0.5951,-0.5989,-0.6006,-0.5984,-0.6004,-0.6008,-0.6005,-0.6018,-0.6015,-0.6032,-0.6011,-0.6015,-0.603,-0.6028,-0.6054,-0.6025,-0.6043,-0.6043,-0.604,-0.6106,-0.6118,-0.6164,-0.6084,-0.6085,-0.6086,0,-0.5994,-0.6002,-0.6042,-0.604,-0.6047,-0.6065,-0.6074,-0.6087,-0.6091,-0.6088,-0.6094,-0.6082,-0.6103,-0.6078,-0.6106,-0.6086,-0.6093,-0.6093,-0.6094,-0.6095,-0.6067,-0.6107,-0.6178,-0.6184,-0.6096,-0.6095,-0.6094,0,-0.6047,-0.6069,-0.6094,-0.6098,-0.6098,-0.611,-0.6111,-0.6113,-0.612,-0.6129,-0.6133,-0.6144,-0.615,-0.6159,-0.6149,-0.6132,-0.6178,-0.6153,-0.6175,-0.6175,-0.6186,-0.6185,-0.6257,-0.6192,-0.6192,-0.6192,-0.6192,0,-0.6108,-0.6133,-0.6117,-0.6133,-0.6159,-0.6146,-0.6172,-0.617,-0.6172,-0.6186,-0.6169,-0.6183,-0.617,-0.6183,-0.6176,-0.6199,-0.6202,-0.6199,-0.6197,-0.62,-0.62,-0.6204,-0.62,-0.6193,-0.6193,-0.6193,-0.6192,0,-0.6173,-0.6163,-0.6189,-0.6186,-0.6186,-0.6205,-0.6202,-0.6216,-0.6211,-0.6229,-0.6232,-0.6224,-0.6238,-0.6229,-0.6244,-0.6239,-0.6268,-0.6263,-0.6267,-0.6265,-0.6287,-0.6284,-0.6363,-0.6372,-0.6302,-0.6303,-0.6303,0,-0.6212,-0.623,-0.6227,-0.6235,-0.6236,-0.625,-0.6256,-0.6243,-0.6251,-0.6255,-0.6268,-0.6279,-0.6288,-0.6311,-0.6306,-0.6316,-0.6309,-0.6336,-0.6311,-0.6313,-0.6308,-0.6306,-0.6307,-0.6341,-0.6342,-0.6343,-0.6343,0,-0.6282,-0.6276,-0.6286,-0.6293,-0.6301,-0.6307,-0.6312,-0.6319,-0.6305,-0.6315,-0.6327,-0.6334,-0.6347,-0.6358,-0.6366,-0.6366,-0.6352,-0.6351,-0.6356,-0.636,-0.636,-0.6358,-0.6279,-0.6349,-0.6349,-0.6348,-0.6348,-0.6348,-0.6334,-0.6348,-0.6347,-0.6358,-0.6359,-0.6363,-0.6375,-0.637,-0.638,-0.6389,-0.6381,-0.6396,-0.6397,-0.6405,-0.6407,-0.6418,-0.6407,-0.6416,-0.6417,-0.6419,-0.6421,-0.6359,-0.642,-0.642,-0.642,-0.6419,-0.6419,0,-0.6402,-0.64,-0.641,-0.6415,-0.6423,-0.6408,-0.6411,-0.6419,-0.6432,-0.6433,-0.6441,-0.6455,-0.6465,-0.646,-0.6469,-0.6478,-0.6472,-0.6481,-0.648,-0.6479,-0.6432,-0.6425,-0.6486,-0.6486,-0.6486,-0.6486,-0.6486,-0.6486,-0.6438,-0.6459,-0.6453,-0.6474,-0.6472,-0.6485,-0.6488,-0.6491,-0.6492,-0.6507,-0.6515,-0.6511,-0.651,-0.6517,-0.6526,-0.6524,-0.6527,-0.6538,-0.6534,-0.649,-0.6483,-0.6477,-0.6471,-0.654,-0.654,-0.6581,-0.6581,-0.6581]},{"header":{"parameterUnit":"m.s-1","parameterCategory":1,"la1":30.2991,"la2":30.254,"lo1":-89.0895,"lo2":-89.0444,"dx":0.0017,"dy":0.0017,"nx":28,"ny":28,"refTime":"2022-12-24T09:00:00:Z","depth":0,"parameterNumber":3,"parameterNumberName":"V-component_of_WINDS"},"data":[0,0,0,0,0,0,0,0,0,0,0,0,0,0,0,0,0,0,0,0,0,0,0,0,0,0,0,0,0,0,0,0,0,0,0,0,0,0,0,0,0,0,0,0,0,0,0,0,0,0,0,0,0,0,0,0,0,0,-3.6569,-3.657,0,-3.6641,-3.6641,-3.6642,-3.6602,-3.66,-3.6598,-3.6596,-3.6666,-3.6669,-3.6673,0,0,0,0,0,0,0,0,0,0,0,0,0,-3.6392,-3.6395,-3.6569,-3.657,-3.6571,-3.664,-3.6641,-3.6642,-3.6602,-3.66,-3.6597,-3.6595,-3.6664,-3.6669,-3.6673,0,0,0,0,0,0,0,0,0,0,0,0,0,-3.6467,-3.6396,-3.6569,-3.6559,-3.6559,-3.664,-3.6641,-3.6643,-3.6603,-3.66,-3.6597,-3.6594,-3.6663,-3.6668,-3.6674,-3.6768,0,0,-3.6691,-3.6693,0,0,0,0,0,0,0,0,-3.6462,-3.6473,-3.656,-3.656,-3.656,-3.6609,-3.6604,-3.6684,-3.6603,-3.6586,-3.6596,-3.6592,-3.6649,-3.6656,-3.6675,-3.6771,-3.6774,-3.6691,-3.6695,-3.6697,-3.6699,0,0,0,0,0,0,0,-3.6457,-3.647,-3.6597,-3.6561,-3.6561,-3.6549,-3.6557,-3.6619,-3.6633,-3.6587,-3.6585,-3.6594,-3.6648,-3.667,-3.6677,-3.6775,-3.6691,-3.6696,-3.67,-3.6702,-3.6947,-3.695,0,0,0,0,0,0,-3.6453,-3.6466,-3.6595,-3.6599,-3.6503,-3.6555,-3.6563,-3.6596,-3.6632,-3.6635,-3.6596,-3.6592,-3.6662,-3.667,-3.6679,-3.6788,-3.6697,-3.6702,-3.6705,-3.6944,-3.6947,-3.6951,0,0,0,0,0,0,-3.645,-3.6465,-3.6592,-3.6532,-3.6547,-3.6561,-3.6599,-3.6599,-3.6621,-3.6639,-3.6641,-3.6616,-3.666,-3.6671,-3.6745,-3.679,-3.6705,-3.671,-3.694,-3.6945,-3.6949,-3.701,0,0,0,0,0,0,-3.6445,-3.6464,-3.6501,-3.6533,-3.655,-3.6659,-3.6602,-3.6603,-3.6631,-3.6626,-3.6658,-3.6661,-3.6659,-3.6737,-3.6751,-3.6796,-3.6714,-3.6936,-3.6942,-3.6948,-3.7004,-3.7016,-3.7027,0,0,0,0,0,-3.6439,-3.6516,-3.6504,-3.6519,-3.6597,-3.6662,-3.6671,-3.6668,-3.6635,-3.6671,-3.6682,-3.666,-3.6784,-3.6745,-3.676,-3.6808,-3.6933,-3.694,-3.6947,-3.6999,-3.7014,-3.7026,0,0,0,0,0,0,-3.6488,-3.652,-3.6507,-3.6596,-3.6627,-3.6655,-3.6701,-3.6685,-3.6724,-3.6717,-3.6711,-3.6718,-3.6795,-3.6809,-3.6766,-3.6899,-3.6853,-3.6863,-3.6887,-3.6901,-3.6912,-3.6906,-3.6719,0,0,0,0,0,-3.651,-3.6561,-3.6585,-3.6661,-3.6677,-3.6687,-3.6714,-3.6709,-3.674,-3.6752,-3.6769,-3.6798,-3.6843,-3.6873,-3.6916,-3.7006,-3.7011,-3.7046,-3.7057,-3.7067,-3.7075,-3.7121,-3.7136,-3.6974,-3.6974,-3.6974,0,0,-3.6554,-3.6578,-3.661,-3.6672,-3.6695,-3.6746,-3.6698,-3.6754,-3.6791,-3.676,-3.6831,-3.6844,-3.6876,-3.6958,-3.6995,-3.6972,-3.7121,-3.7076,-3.7083,-3.7087,-3.7129,-3.7145,-3.7158,-3.6979,-3.6978,-3.6978,0,0,-3.6661,-3.6685,-3.6751,-3.6774,-3.681,-3.6815,-3.683,-3.6861,-3.6868,-3.6939,-3.6917,-3.696,-3.7039,-3.7061,-3.7083,-3.7197,-3.7176,-3.7211,-3.7269,-3.7314,-3.7326,-3.7337,-3.7375,-3.7389,-3.722,-3.722,-3.722,0,-3.6712,-3.6789,-3.6786,-3.6843,-3.687,-3.6845,-3.6909,-3.6932,-3.698,-3.6997,-3.6972,-3.7068,-3.7089,-3.7173,-3.7201,-3.7221,-3.7236,-3.7206,-3.7325,-3.7336,-3.7347,-3.7382,-3.7397,-3.7224,-3.7223,-3.7223,-3.7222,0,-3.6848,-3.6902,-3.695,-3.6996,-3.7028,-3.7089,-3.7093,-3.7125,-3.7117,-3.7124,-3.7195,-3.7218,-3.7264,-3.7284,-3.7277,-3.7367,-3.7352,-3.7326,-3.7279,-3.7366,-3.7399,-3.7413,-3.7229,-3.7228,-3.7226,-3.7226,0,0,-3.6988,-3.7031,-3.7048,-3.7068,-3.7104,-3.7145,-3.7203,-3.7248,-3.7275,-3.7308,-3.7355,-3.7421,-3.7397,-3.7422,-3.7417,-3.7456,-3.754,-3.7425,-3.7425,-3.7443,-3.7638,-3.7656,-3.7672,-3.7528,-3.753,-3.7533,-3.7634,0,-3.7095,-3.7198,-3.7196,-3.7291,-3.7339,-3.7315,-3.7366,-3.7392,-3.74,-3.744,-3.7448,-3.7494,-3.7461,-3.7475,-3.7513,-3.7522,-3.7579,-3.7515,-3.7569,-3.7571,-3.7559,-3.769,-3.7709,-3.7804,-3.7648,-3.765,-3.7652,0,-3.7234,-3.7271,-3.7371,-3.7398,-3.7418,-3.7464,-3.7504,-3.7543,-3.7572,-3.7574,-3.7602,-3.759,-3.7646,-3.7599,-3.7675,-3.7632,-3.7654,-3.7661,-3.7665,-3.7668,-3.7615,-3.7694,-3.7835,-3.7848,-3.7673,-3.7671,-3.7669,0,-3.7323,-3.7398,-3.7467,-3.7485,-3.7519,-3.7551,-3.7566,-3.7592,-3.7618,-3.7653,-3.7669,-3.771,-3.7732,-3.7762,-3.776,-3.7727,-3.7837,-3.779,-3.7838,-3.7838,-3.7861,-3.7859,-3.8005,-3.7879,-3.7879,-3.7879,-3.7878,0,-3.7441,-3.7502,-3.7507,-3.7549,-3.7616,-3.7612,-3.7678,-3.769,-3.7712,-3.7755,-3.7737,-3.7777,-3.7773,-3.7812,-3.7811,-3.7873,-3.7883,-3.7885,-3.7884,-3.7886,-3.7885,-3.7898,-3.7891,-3.7882,-3.7882,-3.7881,-3.788,0,-3.7551,-3.7557,-3.763,-3.7656,-3.7663,-3.7711,-3.7732,-3.7771,-3.7777,-3.783,-3.7843,-3.7852,-3.7897,-3.7898,-3.7951,-3.7949,-3.8024,-3.8016,-3.8014,-3.8012,-3.8059,-3.8053,-3.8216,-3.8236,-3.81,-3.8101,-3.8102,0,-3.7625,-3.7672,-3.7702,-3.773,-3.7747,-3.7792,-3.7818,-3.7815,-3.7844,-3.7878,-3.7912,-3.7956,-3.799,-3.8063,-3.8073,-3.8112,-3.8104,-3.8158,-3.8109,-3.8109,-3.8101,-3.8097,-3.8101,-3.8167,-3.8168,-3.817,-3.8171,0,-3.7755,-3.7755,-3.7795,-3.7836,-3.7868,-3.79,-3.7929,-3.7952,-3.7952,-3.7985,-3.8031,-3.8058,-3.811,-3.8153,-3.819,-3.8204,-3.8186,-3.8186,-3.8199,-3.82,-3.8196,-3.8196,-3.8037,-3.8182,-3.8181,-3.818,-3.8179,-3.8179,-3.7848,-3.7887,-3.7914,-3.7958,-3.798,-3.8007,-3.8044,-3.8054,-3.8093,-3.8136,-3.8132,-3.8182,-3.8207,-3.8255,-3.8272,-3.831,-3.8291,-3.831,-3.8314,-3.8319,-3.8322,-3.8192,-3.8317,-3.8317,-3.8317,-3.8316,-3.8316,0,-3.7974,-3.799,-3.8031,-3.8072,-3.8107,-3.8089,-3.812,-3.8149,-3.8194,-3.8219,-3.8253,-3.8304,-3.8345,-3.8358,-3.8397,-3.8425,-3.8417,-3.8435,-3.8431,-3.8434,-3.8339,-3.8322,-3.844,-3.844,-3.8439,-3.8439,-3.8439,-3.8439,-3.8044,-3.8108,-3.8111,-3.8185,-3.82,-3.825,-3.8269,-3.8293,-3.8312,-3.8371,-3.8405,-3.8414,-3.8433,-3.8473,-3.8508,-3.8511,-3.8524,-3.8544,-3.8543,-3.8454,-3.8441,-3.8429,-3.8414,-3.8548,-3.8548,-3.8635,-3.8636,-3.8637]}]]